Regional Weather Roundup
Issued by NWS Green Bay, WI

Home | Current Version | Previous Version | Text Only | Print | Product List | Glossary On
Versions: 1 2 3 4 5 6 7 8 9 10 11 12 13 14 15 16 17 18 19 20 21 22 23 24 25 26 27 28 29 30 31 32 33 34 35 36 37 38 39 40 41 42 43 44 45 46 47 48 49 50
000
ASUS43 KGRB 260911
RWRGRB

NORTH-CENTRAL AND NORTHEAST WISCONSIN REGIONAL WEATHER ROUNDUP
NATIONAL WEATHER SERVICE GREEN BAY WI
400 AM CDT TUE SEP 26 2017

WIZ005-009-010>012-018-019-261000-
NORTH CENTRAL WISCONSIN

CITY           SKY/WX    TMP DP  RH WIND       PRES   REMARKS
IRONWOOD       CLOUDY    55  55 100 E7        29.94F FOG
MANITOWISH WTR NOT AVBL
ARBOR VITAE    FOG       62  60  95 CALM      29.92F VSB 1
EAGLE RIVER    FOG       62  62 100 CALM      29.93F VSB 3/4
LAND O LAKES   FOG       61  61 100 CALM      29.95F VSB 1/4
RHINELANDER    CLOUDY    63  63 100 CALM      29.93F FOG
PHILLIPS       FOG       60  60 100 CALM      29.92S VSB 1/4
ANTIGO         CLOUDY    63  63 100 CALM      29.94F
TOMAHAWK       FOG       61  60  97 CALM      29.92F VSB 1
MERRILL        CLOUDY    63  63 100 CALM      29.93S FOG
$$

WIZ013-073-261000-
NORTHEAST WISCONSIN

CITY           SKY/WX    TMP DP  RH WIND       PRES   REMARKS
IRON MOUNTAIN  CLOUDY    64  61  90 CALM      29.92F FOG
MARINETTE      FOG       64  64 100 E6        29.93F VSB 1/4
OCONTO         PTCLDY    59  58  98 CALM      29.92F
$$

WIZ017-030-035>037-045-261000-
CENTRAL WISCONSIN

CITY           SKY/WX    TMP DP  RH WIND       PRES   REMARKS
MEDFORD        CLOUDY    61  61  99 CALM      29.93R FOG
WAUSAU         CLOUDY    65  64  97 SE3       29.91F
MOSINEE        CLOUDY    63  63 100 CALM      29.93F FOG
MARSHFIELD     CLOUDY    65  62  90 CALM      29.91F
WISC RAPIDS    CLOUDY    66  65  96 SE3       29.92F
STEVENS POINT  MOCLDY    64  64 100 CALM      29.93S
WAUPACA        CLOUDY    66  65  96 CALM      29.93S
SHAWANO        PTCLDY    65  63  93 CALM      29.92F
CLINTONVILLE   MOCLDY    63  61  94 CALM      29.92F
WAUTOMA        NOT AVBL
$$

WIZ038-039-048-051-261000-
FOX VALLEY

CITY           SKY/WX    TMP DP  RH WIND       PRES   REMARKS
NWS GREEN BAY  CLEAR     62  62 100 CALM      29.92F
APPLETON       PTCLDY    63  59  88 CALM      29.92S
OSHKOSH        CLEAR     63  61  93 CALM      29.92F
FOND DU LAC    CLEAR     62  59  90 S3        29.93F
$$

WIZ022-050-052-261000-
EAST CENTRAL WISCONSIN

CITY           SKY/WX    TMP DP  RH WIND       PRES   REMARKS
EPHRAIM        FAIR      64  64  97 CALM      29.92S FOG
WASHINGTON ISL FOG       64  64  99 CALM      29.91F VSB 1/4
STURGEON BAY   CLEAR     62  60  93 CALM      29.93S
MANITOWOC      CLEAR     60  58  92 NW3       29.93
SHEBOYGAN      CLEAR     61  60  97 CALM      29.93S
$$

LMZ563-521-522-541>543-261000-
LAKESHORE

STATION/POSITION TIME  TEMP    WIND        PRES    VSBY  WAVE
                       AIR SEA DIR/SP/G                  HT/PER
                 (UTC) (F)     (DEG/KT/KT) (MB)    (MI)  (FT/S)
SHEBOYGAN LKSHOR 0900   67     250/  2/  2 1013.0F
KEWAUNEE LKSHORE 0848   65     280/  1/  2 1012.6F
NORTHPORT PIER   0840   66        CALM     1012.9F
N MID LAKE BUOY  0850   68 67  150/  6/  8 1013.5F         1
S GREEN BAY BUOY 0900   70 70  320/  4/  6 1013.1
SISTER BAY LKSHO 0819   66     120/  2/  4   N/A
MENOMINEE LKSHOR 0848   66      30/  8/  9 1013.0F
$$



USA.gov is the U.S. government's official web portal to all federal, state and local government web resources and services.